Location: Nashville
(36.1660°N, 86.7840°W)
Time: 07:30:04
(UTC-05:00)

AO-109 - Pass Details

Date: 23 May 2022
Orbit: 477 x 502 km, 60.7° (Epoch: 27 June)

Event Time Altitude Azimuth Distance (km) Brightness Sun altitude
Rises 00:59:03 0° 331° (NNW) 2,601 ? -33.1°
Reaches altitude 10° 01:01:20 10° 339° (NNW) 1,715 ? -33.1°
Enters shadow 01:01:56 14° 343° (NNW) 1,487 ? -33.1°
